This is the latest recevied weather packets stored in our database for station/object OK2ZAW-23. If no packets are shown the sender has not sent any weather packets the latest 10 day(s).
| Time | Temp. | Humidity | Pressure | Rain* | Wind** | Luminosity | Snow |
|---|---|---|---|---|---|---|---|
| 1777127743 | 21.11° C | 24% | 1010.3 hPa | - | - | 336 W/m² | - |
| 1777127429 | 21.11° C | 24% | 1010.2 hPa | - | - | 336 W/m² | - |
| 1777126486 | 21.11° C | 24% | 1010.2 hPa | - | - | 336 W/m² | - |
| 1777125857 | 21.11° C | 24% | 1010.2 hPa | - | - | 336 W/m² | - |
| 1777125228 | 21.67° C | 24% | 1010.1 hPa | - | - | 336 W/m² | - |
| 1777124600 | 21.11° C | 25% | 1010.3 hPa | - | - | 336 W/m² | - |
| 1777123657 | 20° C | 25% | 1010.5 hPa | - | - | 336 W/m² | - |
| 1777122715 | 19.44° C | 27% | 1010.8 hPa | - | - | 336 W/m² | - |
| 1777122402 | 18.89° C | 28% | 1010.9 hPa | - | - | 336 W/m² | - |
| 1777122087 | 18.89° C | 29% | 1010.9 hPa | - | - | 336 W/m² | - |
| 1777120831 | 18.33° C | 31% | 1011 hPa | - | - | 335 W/m² | - |
| 1777120203 | 17.78° C | 33% | 1011.4 hPa | - | - | 335 W/m² | - |
| 1777119890 | 17.78° C | 33% | 1011.2 hPa | - | - | 336 W/m² | - |
| 1777119576 | 17.78° C | 33% | 1011.1 hPa | - | - | 335 W/m² | - |
| 1777119261 | 17.78° C | 34% | 1011.6 hPa | - | - | 336 W/m² | - |
| 1777118947 | 17.22° C | 36% | 1011.3 hPa | - | - | 336 W/m² | - |
| 1777118634 | 17.22° C | 36% | 1011.5 hPa | - | - | 336 W/m² | - |
| 1777118007 | 16.67° C | 38% | 1011.5 hPa | - | - | 336 W/m² | - |
| 1777117692 | 16.67° C | 36% | 1011.6 hPa | - | - | 335 W/m² | - |
| 1777117378 | 16.67° C | 38% | 1011.5 hPa | - | - | 335 W/m² | - |
| 1777117065 | 16.11° C | 39% | 1011.6 hPa | - | - | 335 W/m² | - |
| 1777116437 | 16.11° C | 41% | 1011.7 hPa | - | - | 335 W/m² | - |
| 1777114868 | 15.56° C | 44% | 1011.9 hPa | - | - | 336 W/m² | - |
| 1777114555 | 15.56° C | 47% | 1012 hPa | - | - | 336 W/m² | - |
| 1777114241 | 15.56° C | 47% | 1012.1 hPa | - | - | 335 W/m² | - |
* Rain since midnight (hover to see other rain measurements)
** Current wind speed in m/s (hover to see current wind gust speed)